Location: Unspecified
(49.8670°N, 0.0000°E)
Time: 04:43:15
(UTC+00:00)

Vanguard 1 - Pass Details

Date: 21 June 2019
Orbit: 653 x 3830 km, 34.3° (Epoch: 22 July)

Event Time Altitude Azimuth Distance (km) Brightness Sun altitude
Rises 03:03:44 0° 229° (SW) 7,410 - -6.3°
Exits shadow 03:07:47 - 224° (SW) 6,479 13.5 -5.9°
Reaches altitude 10° 03:10:04 10° 221° (SW) 5,946 13.3 -5.7°
Maximum altitude 03:23:21 30° 169° (S) 3,303 12.5 -4.2°
Drops below altitude 10° 03:31:43 10° 113° (ESE) 3,691 13.4 -3.2°
Sets 03:34:35 0° 102° (ESE) 4,321 13.9 -2.9°
